• In Deutschland
  • Länderverzeichnis
  • Für 7 Tage
  • Wassertemperatur
  • Satellitenkarten
  • Wetterkarte
  • Widgets
  • user-avatar
    Anmelden

    Stündliche Wetter Leticia

    Heute, 20 August, Sonntag

    Zeit Temperatur Niederschläge Wind Luftdruck Luftfeuchtigkeit
    00:00 +26°C° 0 mm 0 m/S 749 mmHg 73%
    01:00 +25°C° 0 mm 0 m/S 749 mmHg 75%
    02:00 +25°C° 0 mm 0 m/S 749 mmHg 78%
    03:00 +24°C° 0 mm 0 m/S 749 mmHg 80%
    04:00 +24°C° 0 mm 0 m/S 750 mmHg 83%
    05:00 +25°C° 0 mm 0 m/S 750 mmHg 81%
    06:00 +25°C° 0 mm 0 m/S 751 mmHg 79%
    07:00 +26°C° 0 mm 0 m/S 751 mmHg 78%
    08:00 +28°C° 0 mm 0 m/S 751 mmHg 68%
    09:00 +31°C° 0 mm 0 m/S 752 mmHg 59%
    10:00 +36°C° 0 mm 1 m/S 752 mmHg 49%
    11:00 +33°C° 0 mm 0 m/S 751 mmHg 50%
    12:00 +33°C° 0 mm 0 m/S 751 mmHg 51%
    13:00 +33°C° 0 mm 0 m/S 750 mmHg 51%
    14:00 +33°C° 0 mm 0 m/S 750 mmHg 52%
    15:00 +33°C° 0 mm 0 m/S 749 mmHg 53%
    16:00 +32°C° 0 mm 0 m/S 749 mmHg 53%
    17:00 +31°C° 0 mm 0 m/S 749 mmHg 58%
    18:00 +29°C° 0 mm 0 m/S 750 mmHg 62%
    19:00 +28°C° 0 mm 0 m/S 750 mmHg 67%
    20:00 +27°C° 0 mm 0 m/S 750 mmHg 69%
    21:00 +27°C° 0 mm 0 m/S 751 mmHg 72%
    22:00 +26°C° 0 mm 0 m/S 751 mmHg 74%
    23:00 +26°C° 0,2 mm 0 m/S 751 mmHg 78%

    Morgen, 21 August, Montag

    Zeit Temperatur Niederschläge Wind Luftdruck Luftfeuchtigkeit
    00:00 +27°C° 0,2 mm 1 m/S 751 mmHg 83%
    01:00 +26°C° 0,2 mm 1 m/S 751 mmHg 88%
    02:00 +26°C° 0,1 mm 1 m/S 751 mmHg 90%
    03:00 +26°C° 0,1 mm 1 m/S 751 mmHg 92%
    04:00 +25°C° 0,1 mm 1 m/S 751 mmHg 94%
    05:00 +26°C° 0 mm 1 m/S 751 mmHg 92%
    06:00 +24°C° 0 mm 0 m/S 752 mmHg 91%
    07:00 +25°C° 0 mm 0 m/S 753 mmHg 89%
    08:00 +27°C° 0,4 mm 0 m/S 753 mmHg 79%
    09:00 +30°C° 0,4 mm 0 m/S 753 mmHg 68%
    10:00 +33°C° 0,4 mm 0 m/S 753 mmHg 58%
    11:00 +35°C° 0,1 mm 1 m/S 752 mmHg 55%
    12:00 +35°C° 0,1 mm 1 m/S 752 mmHg 52%
    13:00 +36°C° 0,1 mm 1 m/S 751 mmHg 50%
    14:00 +35°C° 0,1 mm 1 m/S 750 mmHg 54%
    15:00 +34°C° 0,1 mm 1 m/S 750 mmHg 58%
    16:00 +33°C° 0,1 mm 1 m/S 749 mmHg 61%
    17:00 +31°C° 2,3 mm 1 m/S 750 mmHg 69%
    18:00 +29°C° 2,3 mm 1 m/S 750 mmHg 76%
    19:00 +28°C° 2,3 mm 1 m/S 751 mmHg 84%
    20:00 +27°C° 5 mm 1 m/S 751 mmHg 88%
    21:00 +26°C° 5 mm 1 m/S 752 mmHg 92%
    22:00 +26°C° 5 mm 1 m/S 753 mmHg 96%
    23:00 +26°C° 0,9 mm 1 m/S 753 mmHg 96%

    übermorgen, 22 August, Dienstag

    Zeit Temperatur Niederschläge Wind Luftdruck Luftfeuchtigkeit
    00:00 +25°C° 0,9 mm 1 m/S 752 mmHg 96%
    01:00 +25°C° 0,9 mm 1 m/S 752 mmHg 96%
    02:00 +25°C° 0,1 mm 1 m/S 752 mmHg 97%
    03:00 +25°C° 0,1 mm 1 m/S 752 mmHg 97%
    04:00 +25°C° 0,1 mm 1 m/S 752 mmHg 98%
    05:00 +25°C° 1,3 mm 1 m/S 752 mmHg 97%
    06:00 +26°C° 1,3 mm 1 m/S 753 mmHg 96%
    07:00 +26°C° 1,3 mm 1 m/S 753 mmHg 95%
    08:00 +27°C° 1,5 mm 1 m/S 754 mmHg 92%
    09:00 +28°C° 1,5 mm 1 m/S 754 mmHg 90%
    10:00 +29°C° 1,5 mm 1 m/S 754 mmHg 87%
    11:00 +30°C° 1,5 mm 1 m/S 753 mmHg 83%
    12:00 +31°C° 1,5 mm 1 m/S 752 mmHg 79%
    13:00 +32°C° 1,5 mm 1 m/S 751 mmHg 76%
    14:00 +30°C° 0,5 mm 0 m/S 751 mmHg 74%
    15:00 +29°C° 0,5 mm 0 m/S 750 mmHg 72%
    16:00 +29°C° 0,5 mm 0 m/S 750 mmHg 70%
    17:00 +28°C° 0,2 mm 0 m/S 750 mmHg 77%
    18:00 +26°C° 0,2 mm 0 m/S 750 mmHg 83%
    19:00 +25°C° 0,2 mm 0 m/S 751 mmHg 89%
    20:00 +24°C° 0,1 mm 0 m/S 751 mmHg 91%
    21:00 +26°C° 0,1 mm 1 m/S 752 mmHg 92%
    22:00 +26°C° 0,1 mm 1 m/S 752 mmHg 94%
    23:00 +25°C° 0,1 mm 1 m/S 752 mmHg 94%

    23 August, Mittwoch

    Zeit Temperatur Niederschläge Wind Luftdruck Luftfeuchtigkeit
    00:00 +25°C° 0,1 mm 1 m/S 751 mmHg 95%
    01:00 +25°C° 0,1 mm 1 m/S 751 mmHg 96%
    02:00 +25°C° 0 mm 1 m/S 751 mmHg 96%
    03:00 +25°C° 0 mm 1 m/S 751 mmHg 97%
    04:00 +24°C° 0 mm 1 m/S 751 mmHg 97%
    05:00 +25°C° 0 mm 1 m/S 751 mmHg 95%
    06:00 +25°C° 0 mm 1 m/S 752 mmHg 93%
    07:00 +26°C° 0 mm 1 m/S 752 mmHg 92%
    08:00 +27°C° 0,1 mm 1 m/S 752 mmHg 86%
    09:00 +28°C° 0,1 mm 1 m/S 752 mmHg 81%
    10:00 +30°C° 0,1 mm 1 m/S 752 mmHg 75%
    11:00 +30°C° 1,4 mm 1 m/S 751 mmHg 76%
    12:00 +31°C° 1,4 mm 1 m/S 751 mmHg 78%
    13:00 +31°C° 1,4 mm 1 m/S 750 mmHg 79%
    14:00 +32°C° 0,6 mm 1 m/S 749 mmHg 74%
    15:00 +32°C° 0,6 mm 1 m/S 749 mmHg 69%
    16:00 +32°C° 0,6 mm 1 m/S 749 mmHg 64%
    17:00 +28°C° 0 mm 0 m/S 749 mmHg 71%
    18:00 +26°C° 0 mm 0 m/S 749 mmHg 77%
    19:00 +25°C° 0 mm 0 m/S 750 mmHg 84%
    20:00 +24°C° 0 mm 0 m/S 750 mmHg 85%
    21:00 +24°C° 0 mm 0 m/S 750 mmHg 86%
    22:00 +24°C° 0 mm 0 m/S 750 mmHg 87%
    23:00 +23°C° 0 mm 0 m/S 750 mmHg 86%

    24 August, Donnerstag

    Zeit Temperatur Niederschläge Wind Luftdruck Luftfeuchtigkeit
    00:00 +23°C° 0 mm 0 m/S 750 mmHg 84%
    01:00 +23°C° 0 mm 0 m/S 750 mmHg 83%
    02:00 +23°C° 0 mm 0 m/S 750 mmHg 84%
    03:00 +23°C° 0 mm 0 m/S 750 mmHg 85%
    04:00 +23°C° 0 mm 0 m/S 750 mmHg 85%
    05:00 +23°C° 0,2 mm 0 m/S 751 mmHg 85%
    06:00 +23°C° 0,2 mm 0 m/S 751 mmHg 86%
    07:00 +26°C° 0,2 mm 1 m/S 752 mmHg 86%
    08:00 +28°C° 0 mm 1 m/S 752 mmHg 76%
    09:00 +31°C° 0 mm 1 m/S 753 mmHg 65%
    10:00 +33°C° 0 mm 1 m/S 753 mmHg 55%
    11:00 +35°C° 0 mm 1 m/S 752 mmHg 50%
    12:00 +36°C° 0 mm 1 m/S 751 mmHg 45%
    13:00 +37°C° 0 mm 1 m/S 750 mmHg 40%
    14:00 +36°C° 0 mm 1 m/S 749 mmHg 42%
    15:00 +36°C° 0 mm 1 m/S 749 mmHg 45%
    16:00 +35°C° 0 mm 1 m/S 749 mmHg 48%
    17:00 +33°C° 0 mm 1 m/S 749 mmHg 55%
    18:00 +31°C° 0 mm 1 m/S 749 mmHg 62%
    19:00 +28°C° 0 mm 1 m/S 750 mmHg 69%
    20:00 +27°C° 0,2 mm 1 m/S 750 mmHg 72%
    21:00 +27°C° 0,2 mm 1 m/S 750 mmHg 76%
    22:00 +26°C° 0,2 mm 1 m/S 750 mmHg 80%
    23:00 +25°C° 0 mm 1 m/S 750 mmHg 81%

    25 August, Freitag

    Zeit Temperatur Niederschläge Wind Luftdruck Luftfeuchtigkeit
    00:00 +23°C° 0 mm 0 m/S 750 mmHg 82%
    01:00 +23°C° 0 mm 0 m/S 750 mmHg 84%
    02:00 +23°C° 0 mm 0 m/S 750 mmHg 85%
    03:00 +22°C° 0 mm 0 m/S 750 mmHg 87%
    04:00 +22°C° 0 mm 0 m/S 751 mmHg 88%
    05:00 +23°C° 0,1 mm 0 m/S 751 mmHg 88%
    06:00 +23°C° 0,1 mm 0 m/S 752 mmHg 88%
    07:00 +24°C° 0,1 mm 0 m/S 752 mmHg 88%
    08:00 +27°C° 0 mm 0 m/S 753 mmHg 76%
    09:00 +32°C° 0 mm 1 m/S 753 mmHg 64%
    10:00 +34°C° 0 mm 1 m/S 753 mmHg 51%
    11:00 +35°C° 0 mm 1 m/S 752 mmHg 48%
    12:00 +36°C° 0 mm 1 m/S 750 mmHg 44%
    13:00 +37°C° 0 mm 1 m/S 749 mmHg 40%
    14:00 +36°C° 0 mm 1 m/S 749 mmHg 44%
    15:00 +35°C° 0 mm 1 m/S 749 mmHg 49%
    16:00 +32°C° 0 mm 0 m/S 748 mmHg 54%
    17:00 +30°C° 0 mm 0 m/S 749 mmHg 60%
    18:00 +31°C° 0 mm 1 m/S 750 mmHg 65%
    19:00 +29°C° 0 mm 1 m/S 750 mmHg 71%
    20:00 +28°C° 0,9 mm 1 m/S 750 mmHg 77%
    21:00 +27°C° 0,9 mm 1 m/S 751 mmHg 83%
    22:00 +24°C° 0,9 mm 0 m/S 751 mmHg 89%
    23:00 +26°C° 0,4 mm 1 m/S 751 mmHg 91%
    Mehr zeigen